Location: Hamlin Beach State Park
(43.3614°N, 77.9586°W)
Time: 01:37:20
(UTC-05:00)

N. Korean satellite - Visible Passes

Search period start: 23 February 2018 00:00
Search period end: 05 March 2018 00:00
Orbit: 459 x 514 km, 97.2° (Epoch: 22 February)

Date Brightness Start Highest point End Pass type
(mag) Time Alt. Az. Time Alt. Az. Time Alt. Az.
23 Feb 10.3 05:51:35 10° ENE 05:53:32 14° E 05:55:28 10° ESE visible
24 Feb 10.2 19:12:43 10° WSW 19:14:08 12° W 19:15:34 10° WNW visible
25 Feb 9.3 18:47:23 10° SSW 18:50:12 23° W 18:53:04 10° NW visible
26 Feb 9.5 06:12:49 10° NE 06:15:56 25° E 06:19:03 10° SSE visible
26 Feb 7.8 18:23:00 10° S 18:26:20 46° W 18:29:45 10° NNW visible
27 Feb 10.3 05:50:07 10° ENE 05:52:01 13° E 05:53:54 10° ESE visible
28 Feb 10.2 19:10:57 10° WSW 19:12:35 13° W 19:14:12 10° WNW visible
01 Mar 9.3 18:45:44 10° SSW 18:48:38 24° W 18:51:34 10° NW visible
02 Mar 9.6 06:11:18 10° NE 06:14:24 24° E 06:17:30 10° SSE visible
03 Mar 10.4 05:48:39 10° ENE 05:50:27 13° E 05:52:17 10° ESE visible
04 Mar 10.1 19:09:11 10° WSW 19:10:58 13° W 19:12:46 10° WNW visible
